Home   Weather   Torrance   Past weeks

Flag for USA Past Weather in Torrance, California, USA — Yesterday and Last 2 Weeks

Now
56 °F

Mostly cloudy.


Feels Like: 54 °F
Forecast: 54 / 59 °F
Wind: 8 mph from West

Location: Hawthorne Municipal Airport

Current Time: Jan 20, 2017 at 12:13:28 am

Latest Report: Jan 19, 2017 at 10:53 pm


Visibility: 10 mi

Pressure: 29.89 "Hg

Humidity: 87%

Dew Point: 52 °F

Location of TorranceLocation

Past Weather in Torrance — Graph

°F

Torrance Temperature Yesterday

Maximum temperature yesterday: 62 °F (at 12:53 pm)
Minimum temperature yesterday: 53 °F (at 2:20 am)
Average temperature yesterday: 56 °F

High & Low Weather Summary for the Past Weeks

 TemperatureHumidityPressure
High75 °F (Jan 8, 11:53 am)100% (Jan 4, 10:41 pm)30.22 "Hg (Jan 4, 10:41 pm)
Low47 °F (Jan 13, 6:53 am)26% (Jan 8, 2:53 pm)29.89 "Hg (Jan 19, 10:39 pm)
Average57 °F81%30.05 "Hg
* Reported Jan 4 10:20 pm — Jan 19 10:53 pm, Torrance, Weather by CustomWeather, © 2017

Note: Actual official high and low records may vary slightly from our data, if they occured in-between our weather recording intervals... More about our weather records

Advertising

Torrance Weather History for the Previous 24 Hours

Scroll right to see more
 ConditionsComfort  
Time TempWeatherWind HumidityBarometerVisibility
10:53 pm
Thu, Jan 19
56 °FMostly cloudy.8 mph87%29.89 "Hg10 mi
10:39 pm55 °FLight rain. Mostly cloudy.3 mph90%29.89 "Hg10 mi
9:53 pm55 °FPassing clouds.5 mph90%29.91 "Hg10 mi
8:53 pm56 °FMostly cloudy.12 mph75%29.90 "Hg10 mi
8:33 pm56 °FMostly cloudy.10 mph87%29.91 "Hg10 mi
7:53 pm58 °FOvercast.13 mph78%29.91 "Hg10 mi
6:53 pm58 °FMostly cloudy.13 mph78%29.91 "Hg10 mi
5:53 pm58 °FMostly cloudy.10 mph78%29.91 "Hg10 mi
5:36 pm58 °FOvercast.14 mph78%29.92 "Hg10 mi
4:53 pm59 °FPartly sunny.14 mph72%29.90 "Hg10 mi
3:53 pm60 °FScattered clouds.18 mph69%29.89 "Hg10 mi
3:19 pm61 °FPartly sunny.16 mph70%29.90 "Hg10 mi
2:53 pm61 °FSunny.17 mph67%29.90 "Hg10 mi
1:53 pm62 °FSunny.17 mph52%29.90 "Hg10 mi
12:53 pm62 °FSunny.20 mph58%29.92 "Hg10 mi
11:53 am61 °FSunny.15 mph65%29.93 "Hg10 mi
10:53 am60 °FSunny.13 mph72%29.96 "Hg10 mi
10:30 am58 °FScattered clouds.13 mph84%29.97 "Hg10 mi
9:53 am60 °FPartly sunny.7 mph83%29.97 "Hg10 mi
8:53 am55 °FMostly cloudy.No wind93%29.96 "Hg10 mi
8:13 am54 °FPartly sunny.No wind93%29.95 "Hg10 mi
7:53 am54 °FCloudy.No wind93%29.94 "Hg10 mi
7:30 am54 °FMostly cloudy.No wind97%29.94 "Hg9 mi
6:53 am56 °FMostly cloudy.10 mph97%29.92 "Hg10 mi
5:53 am55 °FLight rain. Low clouds.6 mph96%29.92 "Hg10 mi
5:34 am54 °FLight rain. Fog.5 mph100%29.93 "Hg4 mi
5:09 am53 °FHeavy rain. Fog.3 mph100%29.93 "Hg3 mi
4:53 am53 °FHeavy rain. Fog.6 mph100%29.94 "Hg3 mi
4:23 am53 °FHeavy rain. Fog.9 mph100%29.95 "Hg2 mi
3:53 am54 °FRain. Fog.6 mph97%29.97 "Hg6 mi
3:36 am54 °FRain. Mostly cloudy.8 mph97%29.98 "Hg7 mi
2:53 am54 °FLight rain. Fog.6 mph93%30.01 "Hg6 mi
2:20 am53 °FRain. Fog.5 mph96%30.03 "Hg4 mi
1:53 am54 °FLight rain. Mostly cloudy.No wind90%30.04 "Hg10 mi
1:41 am54 °FLight rain. Mostly cloudy.3 mph90%30.04 "Hg9 mi
12:53 am55 °FOvercast.No wind80%30.03 "Hg10 mi
Weather by CustomWeather, © 2017

See weather overviewHow to use our weather pages